SCP
0 0 0 -0 1 1 0 0 0 0 0 0 0 0 0 0 -0 -0 -0 -0 -0 -0 -0 -0 -0 0 0 0 0 0 0 -0
0 0 0 0 0 1 1 0 0 0 0 0 0 0 0 0 0 0 -0 -0 -0 -0 -0 -0 0 0 0 0 0 0 0 0
0 0 0 0 0 1 1 1 0 1 0 0 0 0 0 0 0 0 0 0 0 0 0 0 0 0 0 0 0 0 0 0
0 1 0 0 0 0 1 1 1 1 1 1 0 0 0 0 0 0 0 0 0 0 0 0 0 0 0 0 0 0 0 0
1 1 0 0 0 0 0 1 1 1 1 1 1 0 0 0 0 0 0 0 0 0 0 0 0 0 0 0 0 0 0 0
1 0 1 0 0 0 0 1 1 1 1 1 1 1 0 0 0 0 0 0 0 0 0 0 0 0 0 0 0 0 0 0
0 1 1 0 0 0 0 0 0 0 0 0 0 0 0 0 0 0 0 0 0 0 0 0 0 0 0 -0 0 0 0 0
0 0 1 1 1 0 0 0 0 0 0 0 0 0 0 0 0 0 0 0 0 0 0 0 0 0 0 0 0 0 0 0
0 0 1 2 2 0 0 0 0 0 0 0 0 0 0 0 0 0 0 0 0 0 0 0 0 0 0 0 0 0 0 0
0 0 1 2 2 1 3 0 0 0 0 0 0 0 0 0 1 0 0 0 0 0 0 0 0 0 0 0 0 0 0 0
0 0 0 2 3 2 2 2 1 0 0 0 0 1 1 0 1 0 0 0 0 0 0 0 0 0 0 0 0 0 0 0
0 0 0 2 2 2 2 3 1 0 0 0 0 1 1 1 2 0 0 0 0 0 0 0 1 0 0 0 0 0 0 0
0 0 1 2 2 2 2 2 1 1 0 0 0 1 1 1 1 1 0 0 0 0 0 0 0 0 0 0 0 0 0 0
0 0 0 1 1 1 3 3 2 2 1 0 0 0 1 0 0 0 0 0 2 0 0 0 0 0 0 0 0 0 0 0
0 0 0 1 3 4 3 4 3 2 1 0 0 0 1 0 0 0 0 1 1 0 0 0 0 0 0 0 0 0 0 0
0 0 1 1 4 6 6 4 4 3 2 1 0 1 1 0 0 0 0 2 1 1 1 1 1 1 0 0 0 0 0 0
0 0 1 4 6 7 5 4 5 3 2 1 1 1 1 0 1 0 2 2 1 0 1 1 1 0 0 0 0 0 0 0
0 0 0 4 5 6 5 5 5 3 3 1 1 1 1 1 0 1 1 1 2 2 1 1 1 1 0 0 0 0 0 0
0 0 0 3 4 4 5 4 3 4 3 3 1 1 1 1 0 0 1 1 2 1 3 1 1 1 1 1 0 0 0 0
Wind_Speed_500mb
19 25 41 50 49 46 47 49 50 51 46 41 39 39 37 33 30 26 24 24 22 19 16 13 10 6 2 3 4 5 7 12
14 24 36 50 52 49 46 49 51 51 48 43 41 40 37 32 31 27 26 26 24 21 17 14 10 6 2 3 4 4 7 10
18 23 33 48 56 52 51 49 53 52 49 46 42 40 36 33 33 28 27 26 24 21 18 15 11 7 4 3 6 6 8 12
19 26 31 45 60 55 53 51 52 54 51 47 44 41 38 37 34 31 29 27 23 20 18 15 11 8 5 4 7 9 9 12
18 24 31 36 60 60 57 55 53 53 52 49 45 42 40 39 34 33 30 27 23 20 18 15 12 9 6 4 5 8 13 17
9 24 35 37 46 53 51 59 58 56 55 51 47 44 43 39 37 33 29 27 24 20 17 14 11 9 7 6 13 19 20 9
25 29 39 40 49 50 47 51 61 60 58 53 51 49 44 31 31 26 30 29 26 20 16 13 12 8 5 6 18 21 17 14
26 27 43 48 53 51 50 49 57 58 47 49 48 49 42 33 30 29 26 32 26 21 12 10 10 5 10 14 11 15 17 17
40 34 36 56 57 54 51 47 51 50 52 49 48 53 45 40 34 34 24 23 20 19 14 17 12 12 14 13 18 17 15 17
42 31 38 51 63 61 57 48 50 52 55 51 51 50 47 43 37 34 30 26 21 20 18 15 14 14 12 16 13 15 16 18
42 46 39 50 66 62 63 56 54 56 50 52 51 50 52 44 44 36 31 27 24 21 17 16 15 14 13 14 15 16 16 19
47 47 42 47 65 71 70 59 57 54 51 51 48 52 53 47 49 37 30 29 25 23 23 19 17 15 13 16 19 16 17 16
48 47 54 49 55 75 74 68 59 52 52 49 47 52 57 54 49 47 35 33 28 26 19 19 15 14 15 16 17 19 17 19
48 47 50 61 58 64 80 71 64 57 55 51 49 46 52 54 52 52 40 35 38 22 22 20 17 17 15 18 18 20 17 15
56 55 59 60 66 67 74 75 70 61 57 51 50 50 54 50 48 50 38 36 38 26 23 19 18 15 15 16 18 22 23 15
61 59 57 69 70 72 76 84 78 70 63 58 53 53 54 51 48 54 38 41 36 27 24 26 20 17 12 13 14 20 22 28
59 63 58 69 69 77 75 80 81 75 66 62 55 54 55 52 58 55 43 35 36 25 27 25 21 14 11 13 10 17 20 14
63 61 66 64 72 80 80 77 87 69 65 66 60 54 55 54 54 53 47 32 36 32 22 22 18 18 14 8 16 7 13 16
66 66 72 64 81 83 88 74 86 79 76 72 64 54 53 56 51 53 47 36 39 30 29 20 23 13 17 12 4 6 9 14
Wind_Direction_500mb
176 191 204 194 194 192 194 191 194 196 196 190 185 183 182 182 186 186 183 180 183 187 194 203 211 221 262 340 2 8 32 51
193 189 216 198 197 193 198 193 195 195 199 195 192 189 190 189 192 194 188 185 188 196 201 212 223 246 286 327 318 351 20 18
212 199 228 205 198 196 197 197 197 199 199 199 196 195 196 198 197 200 192 192 193 199 206 217 227 249 283 295 292 322 345 358
215 207 218 208 196 198 201 199 201 201 200 199 200 201 203 204 202 198 198 199 201 205 211 221 230 243 244 260 299 320 332 351
201 208 211 199 198 199 201 201 203 204 202 202 203 206 208 206 205 201 203 207 209 212 218 225 238 241 235 263 314 327 332 337
196 196 203 202 198 198 201 203 202 204 206 205 207 209 208 207 204 202 206 214 220 217 226 239 252 255 253 289 332 324 330 325
223 216 202 203 199 193 196 204 202 206 207 206 208 206 201 195 201 198 220 219 225 225 229 245 260 260 274 305 286 340 337 313
250 210 213 204 203 196 194 202 199 203 198 198 197 202 185 196 199 189 217 219 219 227 237 283 264 305 287 273 271 286 294 305
243 230 220 206 201 196 196 201 191 195 189 192 192 200 182 190 200 196 200 199 196 227 198 220 232 238 252 270 274 281 295 308
250 251 215 216 200 197 197 202 194 195 192 192 195 198 187 192 201 194 195 192 207 202 220 214 224 244 253 269 266 282 300 309
244 247 225 204 206 199 194 200 197 194 199 194 196 201 187 190 200 197 193 189 199 201 211 225 237 246 263 256 275 288 304 310
242 239 235 209 218 199 199 200 197 200 197 196 197 203 188 184 211 190 190 189 197 202 205 217 230 240 252 272 279 299 313 302
242 235 224 216 216 215 202 200 202 202 197 196 197 199 193 187 211 183 187 191 198 198 203 211 217 231 245 260 278 293 293 300
242 238 234 218 214 213 208 201 201 202 199 199 196 198 199 195 204 190 188 189 202 195 203 209 218 225 245 271 280 287 296 303
240 238 241 226 217 217 211 202 203 202 201 201 197 199 202 194 198 190 187 195 207 193 203 204 214 233 231 260 276 280 283 283
237 236 239 228 216 210 213 203 201 202 201 201 200 197 203 192 195 190 192 196 196 197 200 216 225 239 249 273 294 291 274 271
234 234 231 224 218 212 211 209 203 198 204 200 198 197 197 191 196 195 185 195 195 197 196 212 207 215 246 276 287 288 293 254
235 233 231 223 219 217 207 212 204 201 204 199 196 193 200 193 199 195 185 193 206 190 209 209 221 216 241 242 290 288 308 310
237 231 230 226 222 221 210 204 200 201 198 194 195 198 194 187 194 191 186 188 201 187 206 208 211 204 216 252 253 289 290 301
Wind_Speed_850mb
19 25 41 50 49 46 47 49 50 51 46 41 39 39 37 33 30 26 24 24 22 19 16 13 10 6 2 3 4 5 7 12
14 24 36 50 52 49 46 49 51 51 48 43 41 40 37 32 31 27 26 26 24 21 17 14 10 6 2 3 4 4 7 10
18 23 33 48 56 52 51 49 53 52 49 46 42 40 36 33 33 28 27 26 24 21 18 15 11 7 4 3 6 6 8 12
19 26 31 45 60 55 53 51 52 54 51 47 44 41 38 37 34 31 29 27 23 20 18 15 11 8 5 4 7 9 9 12
18 24 31 36 60 60 57 55 53 53 52 49 45 42 40 39 34 33 30 27 23 20 18 15 12 9 6 4 5 8 13 17
9 24 35 37 46 53 51 59 58 56 55 51 47 44 43 39 37 33 29 27 24 20 17 14 11 9 7 6 13 19 20 9
25 29 39 40 49 50 47 51 61 60 58 53 51 49 44 31 31 26 30 29 26 20 16 13 12 8 5 6 18 21 17 14
26 27 43 48 53 51 50 49 57 58 47 49 48 49 42 33 30 29 26 32 26 21 12 10 10 5 10 14 11 15 17 17
40 34 36 56 57 54 51 47 51 50 52 49 48 53 45 40 34 34 24 23 20 19 14 17 12 12 14 13 18 17 15 17
42 31 38 51 63 61 57 48 50 52 55 51 51 50 47 43 37 34 30 26 21 20 18 15 14 14 12 16 13 15 16 18
42 46 39 50 66 62 63 56 54 56 50 52 51 50 52 44 44 36 31 27 24 21 17 16 15 14 13 14 15 16 16 19
47 47 42 47 65 71 70 59 57 54 51 51 48 52 53 47 49 37 30 29 25 23 23 19 17 15 13 16 19 16 17 16
48 47 54 49 55 75 74 68 59 52 52 49 47 52 57 54 49 47 35 33 28 26 19 19 15 14 15 16 17 19 17 19
48 47 50 61 58 64 80 71 64 57 55 51 49 46 52 54 52 52 40 35 38 22 22 20 17 17 15 18 18 20 17 15
56 55 59 60 66 67 74 75 70 61 57 51 50 50 54 50 48 50 38 36 38 26 23 19 18 15 15 16 18 22 23 15
61 59 57 69 70 72 76 84 78 70 63 58 53 53 54 51 48 54 38 41 36 27 24 26 20 17 12 13 14 20 22 28
59 63 58 69 69 77 75 80 81 75 66 62 55 54 55 52 58 55 43 35 36 25 27 25 21 14 11 13 10 17 20 14
63 61 66 64 72 80 80 77 87 69 65 66 60 54 55 54 54 53 47 32 36 32 22 22 18 18 14 8 16 7 13 16
66 66 72 64 81 83 88 74 86 79 76 72 64 54 53 56 51 53 47 36 39 30 29 20 23 13 17 12 4 6 9 14
Wind_Direction_850mb
176 191 204 194 194 192 194 191 194 196 196 190 185 183 182 182 186 186 183 180 183 187 194 203 211 221 262 340 2 8 32 51
193 189 216 198 197 193 198 193 195 195 199 195 192 189 190 189 192 194 188 185 188 196 201 212 223 246 286 327 318 351 20 18
212 199 228 205 198 196 197 197 197 199 199 199 196 195 196 198 197 200 192 192 193 199 206 217 227 249 283 295 292 322 345 358
215 207 218 208 196 198 201 199 201 201 200 199 200 201 203 204 202 198 198 199 201 205 211 221 230 243 244 260 299 320 332 351
201 208 211 199 198 199 201 201 203 204 202 202 203 206 208 206 205 201 203 207 209 212 218 225 238 241 235 263 314 327 332 337
196 196 203 202 198 198 201 203 202 204 206 205 207 209 208 207 204 202 206 214 220 217 226 239 252 255 253 289 332 324 330 325
223 216 202 203 199 193 196 204 202 206 207 206 208 206 201 195 201 198 220 219 225 225 229 245 260 260 274 305 286 340 337 313
250 210 213 204 203 196 194 202 199 203 198 198 197 202 185 196 199 189 217 219 219 227 237 283 264 305 287 273 271 286 294 305
243 230 220 206 201 196 196 201 191 195 189 192 192 200 182 190 200 196 200 199 196 227 198 220 232 238 252 270 274 281 295 308
250 251 215 216 200 197 197 202 194 195 192 192 195 198 187 192 201 194 195 192 207 202 220 214 224 244 253 269 266 282 300 309
244 247 225 204 206 199 194 200 197 194 199 194 196 201 187 190 200 197 193 189 199 201 211 225 237 246 263 256 275 288 304 310
242 239 235 209 218 199 199 200 197 200 197 196 197 203 188 184 211 190 190 189 197 202 205 217 230 240 252 272 279 299 313 302
242 235 224 216 216 215 202 200 202 202 197 196 197 199 193 187 211 183 187 191 198 198 203 211 217 231 245 260 278 293 293 300
242 238 234 218 214 213 208 201 201 202 199 199 196 198 199 195 204 190 188 189 202 195 203 209 218 225 245 271 280 287 296 303
240 238 241 226 217 217 211 202 203 202 201 201 197 199 202 194 198 190 187 195 207 193 203 204 214 233 231 260 276 280 283 283
237 236 239 228 216 210 213 203 201 202 201 201 200 197 203 192 195 190 192 196 196 197 200 216 225 239 249 273 294 291 274 271
234 234 231 224 218 212 211 209 203 198 204 200 198 197 197 191 196 195 185 195 195 197 196 212 207 215 246 276 287 288 293 254
235 233 231 223 219 217 207 212 204 201 204 199 196 193 200 193 199 195 185 193 206 190 209 209 221 216 241 242 290 288 308 310
237 231 230 226 222 221 210 204 200 201 198 194 195 198 194 187 194 191 186 188 201 187 206 208 211 204 216 252 253 289 290 301